User: anonymous   Login
Location: Cluj-Napoca
(46.7712°N, 23.6236°E)
Time: 14:11:29
(UTC+02:00)
Language:

LilacSat-2 - Orbit

View from above orbital plane
View from above orbital plane
View from above satellite
View from above satellite

Ground track
Ground track

The orbit data is extracted from the following two-line orbital elements,

1 40908U 15049K   21340.11970953  .00001482  00000-0  83345-4 0  9997
2 40908  97.5111 337.8772 0014774 332.1130  92.6926 15.14753029343214
Epoch (UTC): 06 December 2021 02:52:22
Eccentricity: 0.0014774
inclination: 97.5111°
perigee height: 511 km
apogee height: 532 km
right ascension of ascending node: 337.8772°
argument of perigee: 332.1130°
revolutions per day: 15.14753029
mean anomaly at epoch: 92.6926°
orbit number at epoch: 34321

The dashed part of the orbit path shows where the satellite is in the earth's shadow,  

DLR